Location: Chiroubles
(46.1812°N, 4.6660°E)
Time: 02:18:49
(UTC+00:00)

USA 267 - Pass Details

Date: 15 August 2020
Orbit: 1102 x 1106 km, 123.0° (Epoch: 18 September)

Event Time Altitude Azimuth Distance (km) Brightness Sun altitude
Rises 19:50:18 0° 57° (ENE) 3,927 5.9 -10.2°
Reaches altitude 10° 19:53:10 10° 68° (ENE) 2,966 5.2 -10.6°
Maximum altitude 19:58:45 29° 127° (SE) 1,885 3.9 -11.4°
Drops below altitude 10° 20:04:19 10° 186° (S) 2,955 5.2 -12.2°
Sets 20:07:09 0° 197° (SSW) 3,909 6.0 -12.6°
